Voltar ao catálogo

OPS 4682 DEB

AtivoPO
NORAD 38453·DEBRIS·🇺🇸 United States

Lançado Apr 3, 1965 de Vandenberg Space Force Base

Loading…

Próximas Passagens (próximas 24 horas)

TLE

EnvelhecendoSource: Space-Track

Época: Sep 11, 2026, 02:45 UTC

1 38453U 65027FJ  26254.11476973 -.00000006  00000-0 -47303-4 0  9999
2 38453  90.2491   8.4993 0024163   1.4702 358.6485 12.94958759586112

Acompanhe OPS 4682 DEB em tempo real com AllMySat

Download on the App Store